Regional Weather Roundup
Issued by NWS

Home | Current Version | Previous Version | Text Only | Print | Product List | Glossary On
Versions: 1 2 3 4 5 6 7 8 9 10 11 12 13 14 15 16 17 18 19 20 21 22 23 24 25 26 27 28
000
ASUS42 KTBW 310610
RWRFL
FLORIDA REGIONAL WEATHER ROUNDUP
NATIONAL WEATHER SERVICE TAMPA BAY RUSKIN FL
200 AM EDT FRI OCT 31 2014

NOTE: "FAIR" INDICATES FEW OR NO CLOUDS BELOW 12,000 FEET WITH NO
SIGNIFICANT WEATHER AND/OR OBSTRUCTIONS TO VISIBILITY.


FLZ001>010-012>015-112-114-115-310700-
PANHANDLE FLORIDA

CITY           SKY/WX    TMP DP  RH WIND       PRES   REMARKS
PENSACOLA      CLEAR     55  40  56 N7        30.01S
PENSACOLA NAS  CLEAR     51  45  79 N5        30.00F
MILTON NAS     CLEAR     48  41  76 NW5       30.01S
CRESTVIEW      CLEAR     50  43  77 N5        30.01S
DUKE FIELD     FAIR      47  44  87 CALM      30.00S
VALPARAISO     CLEAR     53  42  65 N9        30.00S
MARY ESTHER    CLEAR     48  40  72 N7        29.99S
TRI COUNTY     FAIR      47  45  93 CALM      29.99F
PANAMA CITY    FAIR      48  43  82 NW5       29.97F
TYNDALL AFB    CLEAR     59  44  58 N10G16    29.97F
APALACHICOLA   CLEAR     57  46  66 N8        29.96S

STATION/POSITION SKY/WX   TEMP    WIND        PRES    WAVE   SWELL
                          AIR SEA DIR/SP/G            HT/PER HT/PER
                          (F)     (DEG/KT/KT) (MB)    (FT/S) (FT/S)
30.1N   87.6W              67 76   10/ 14/ 16 1015.7F   1/ 3
29.2N   88.2W              70 77  360/ 14/ 17 1016.5F   3/ 5
28.8N   86.0W              71 79   10/ 12/ 16 1014.3F   3/ 5
PANAMA CITY BEAC           56 75  350/  6/  8 1015.1S
CAPE SAN BLAS    NOT AVBL
TOWER C                    67     360/ 18/ 19 1013.6F
28.5N   84.5W              73 80  350/ 14/ 17 1013.2F   2/ 3

$$
FLZ011-016>038-118-127-128-134-139-239-310700-
NORTH FLORIDA

CITY           SKY/WX    TMP DP  RH WIND       PRES   REMARKS
MARIANNA       CLEAR     49  46  90 CALM      29.97S
TALLAHASSEE    CLEAR     46  41  82 W3        29.95S
PERRY          CLEAR     50  48  93 CALM      29.93F
CROSS CITY       N/A     64  50  60 N6        29.91F
LAKE CITY      MOCLDY    59  50  72 N6        29.91F
GAINESVILLE    CLOUDY    63  58  83 NW3       29.89F
MAYPORT NAS    CLOUDY    65  60  84 NW5       29.87F
JACKSONVILLE   PTCLDY    59  57  93 W5        29.88F
JAX NAS        MOCLDY    67  55  65 NW5       29.89F
JAX CRAIG      MOCLDY    64  58  80 NW6       29.88F
JAX CECIL      CLEAR     57  54  88 W3        29.89F
ST AUGUSTINE   CLOUDY    64  64 100 W6        29.88F FOG

STATION/POSITION SKY/WX   TEMP    WIND        PRES    WAVE   SWELL
                          AIR SEA DIR/SP/G            HT/PER HT/PER
                          (F)     (DEG/KT/KT) (MB)    (FT/S) (FT/S)
SHELL POINT                58     350/  7/  9   N/A
KEATON BEACH               59     360/  6/  8 1013.3F
CEDAR KEY                  67      30/  4/  6 1013.3F
FERNANDINA                 68 75  320/  5/  7 1011.2F
30.7N   81.3W                 76                N/A     2/ 4
MAYPORT                    66 76  310/  5/  6   N/A
31.4N   80.9W              69 74   40/  8/ 12 1011.7F   2/ 5   2/ 5
ST AUGUSTINE               65     300/  7/  9 1011.8F

$$
FLZ040-043>046-052-053-057-058-063-144-310700-
INTERIOR CENTRAL FLORIDA

CITY           SKY/WX    TMP DP  RH WIND       PRES   REMARKS
OCALA          CLEAR     63  59  88 CALM      29.89F
THE VILLAGES     N/A     66  64  94 CALM      29.79F
LEESBURG       CLOUDY    69  63  81 N7        29.89F
SANFORD        CLEAR     67  62  84 CALM      29.87F
ORLANDO EXEC   CLEAR     72  67  84 CALM      29.87F
ORLANDO INTL   PTCLDY    68  66  93 SE3       29.87F
WINTER HAVEN   MOCLDY    71  67  87 NW3       29.88F
LAKELAND       CLOUDY    70  66  88 NW3       29.88F
BARTOW         FAIR      70  66  88 CALM      29.88F
OKEECHOBEE     MOCLDY    70  68  94 MISG        N/A

$$
FLZ041-047-054-059-064-141-147-310700-
EAST CENTRAL FLORIDA

CITY           SKY/WX    TMP DP  RH WIND       PRES   REMARKS
DAYTONA BEACH  PTCLDY    65  63  93 SW3       29.87F
DELAND         CLEAR     64  61  88 CALM      29.89S
JFK SPACE CTR  TSTM      71  67  87 VRB3G17   29.85F
CAPE CANAVERAL MOCLDY    68  64  88 N2        29.86F THUNDER
PATRICK AFB    LGT RAIN  72  66  83 S2        29.87S
MELBOURNE      LGT RAIN  70  67  90 NW5       29.87S
VERO BEACH     MOCLDY    69  66  90 SW7       29.87S
FT PIERCE      CLOUDY    68  66  93 W3        29.87R
STUART         PTCLDY    70  66  88 SW3       29.88S

STATION/POSITION SKY/WX   TEMP    WIND        PRES    WAVE   SWELL
                          AIR SEA DIR/SP/G            HT/PER HT/PER
                          (F)     (DEG/KT/KT) (MB)    (FT/S) (FT/S)
28.5N   80.2W              78 80   CALM  /  2 1011.2F
28.9N   78.5W              78 82  230/  4/  6 1010.8F   3/ 7   3/ 7
TRIDENT PIER               69 78  330/  4/  6 1011.1F
28.4N   80.5W                 78                N/A     1/ 7
27.6N   80.2W                 79                N/A     1/ 7

$$
FLZ050-056-061-142-242-148-248-149-249-151-251-155-255-
160-260-310700-
WEST CENTRAL FLORIDA

CITY           SKY/WX    TMP DP  RH WIND       PRES   REMARKS
CRYSTAL RIVER  CLOUDY    64  59  82 NW3       29.90S
INVERNESS      CLOUDY    68  64  88 N5        29.90F
BROOKSVILLE    CLOUDY    69  65  86 CALM      29.90F
ZEPHYRHILLS    CLOUDY    66  64  94 CALM      29.89F
CLEARWATER     CLOUDY    73  69  87 N6        29.88F
TAMPA INTL     CLOUDY    71  67  87 N6        29.88F
TAMPA EXEC     CLOUDY    70  68  94 CALM      29.89F
PLANT CITY     MOCLDY    72 N/A N/A CALM      29.90F
MACDILL AFB    CLOUDY    70  69  95 N2        29.88F
ST PETERSBURG  MOCLDY    73  69  87 N5        29.87F
SARASOTA       PTCLDY    72  68  87 N5        29.86F
VENICE           N/A     72  68  88 NE3       29.88F

STATION/POSITION SKY/WX   TEMP    WIND        PRES    WAVE   SWELL
                          AIR SEA DIR/SP/G            HT/PER HT/PER
                          (F)     (DEG/KT/KT) (MB)    (FT/S) (FT/S)
CEDAR KEY                  67      30/  4/  6 1013.3F
28.5N   84.5W              73 80  350/ 14/ 17 1013.2F   2/ 3
27.3N   84.3W                 80                N/A     3/ 5
CLEARWATER BEACH           74 77  350/ 11/ 13 1011.7F
MIDDLE TAMPA BAY           74      20/  9/ 10 1012.0F
VENICE                     74 79   10/  4/  4 1011.7F

$$
FLZ066-069-070-075>078-162-262-165-265-310700-
SOUTHWEST FLORIDA AND KEYS

CITY           SKY/WX    TMP DP  RH WIND       PRES   REMARKS
PUNTA GORDA    MOCLDY    70  67  90 CALM      29.89F
FT MYERS       CLEAR     73  69  87 CALM      29.86F
SOUTHWEST INTL MOCLDY    72  68  87 W3        29.87F
NAPLES         MOCLDY    73  69  87 CALM      29.87F
MARCO ISLAND   CLEAR     70  66  88 CALM      29.87F
MARATHON       CLEAR     72  68  87 CALM      29.88F
KEY WEST NAS   CLEAR     75  67  76 W5        29.89F
KEY WEST INTL  CLEAR     75  71  87 W3        29.89F

STATION/POSITION SKY/WX   TEMP    WIND        PRES    WAVE   SWELL
                          AIR SEA DIR/SP/G            HT/PER HT/PER
                          (F)     (DEG/KT/KT) (MB)    (FT/S) (FT/S)
VENICE                     74 79   10/  4/  4 1011.7F
NAPLES                     78 83  310/  5/  6 1012.1S
26.0N   85.6W              78 80  360/ 14/ 16 1013.1F   3/ 5
DRY TORTUGAS               78     250/  2/  3 1012.4F
NW FL BAY                  79     280/  3/  4 1012.5F
SAND KEY                   78      20/  5/ 17 1012.2F
SOMBRERO KEY               78     300/  5/  6 1013.1F
LONG KEY                   78 80  260/  4/  5 1013.1F
MOLASSES REEF              78 81  290/  7/  8 1012.1F

$$
FLZ067-068-071>074-168-172>174-310700-
SOUTHEAST FLORIDA

CITY           SKY/WX    TMP DP  RH WIND       PRES   REMARKS
W PALM BEACH   PTCLDY    72  69  90 SW5       29.85F
FT LAUDER-EXEC CLEAR     73  65  75 CALM      29.86F
FT LAUDERDALE  PTCLDY    76  68  76 W5        29.86F
POMPANO BEACH  CLEAR     74  66  76 W3        29.87F
PEMBROKE PINES CLEAR     73  68  84 W6        29.88F
OPA LOCKA      CLEAR     74  69  85 W6        29.87F
MIAMI          PTCLDY    75  69  81 W6        29.87F
WEST KENDALL   CLEAR     71  66  84 W6        29.87F
HOMESTEAD      CLEAR     70  66  87 SW6       29.88F

STATION/POSITION SKY/WX   TEMP    WIND        PRES    WAVE   SWELL
                          AIR SEA DIR/SP/G            HT/PER HT/PER
                          (F)     (DEG/KT/KT) (MB)    (FT/S) (FT/S)
PORT EVERGLADES            77     260/  4/  5 1011.2
VIRGINIA KEY               76 79  260/  9/ 10 1011.8F
LAKE WORTH                 74 81  250/  3/  5 1010.9F
FOWEY ROCKS                78 79  270/ 14/ 14 1012.1F
SETTLEMENT POINT           78      20/  2/  2 1011.5F

$$




USA.gov is the U.S. government's official web portal to all federal, state and local government web resources and services.